Flag for Germany Weather past 2 weeks in Idar-Oberstein, Rhineland-Palatinate, Germany

Now
37 °F

Scattered showers. Passing clouds.


Feels Like: 30 °F
Forecast: 34 / 42 °F
Wind: 12 mph from West

Location: Hahn

Current Time: Mar 4, 2015 at 6:20:19 PM

Latest Report: Mar 4, 2015 at 5:20 PM


Visibility: 1 mi

Pressure: 30.30 "Hg

Humidity: 75%

Dew point: 30 °F

Location of Idar-ObersteinLocation

Historic Weather in Idar-Oberstein — Graph

°F

Idar-Oberstein temperature yesterday

Maximum temperature yesterday: 45 °F (at 1:50 PM)
Minimum temperature yesterday: 32 °F (at 2:20 AM)
Average temperature yesterday: 37 °F

Past Weeks' High & Low Weather Summary

 TemperatureHumidityPressure
High46 °F (Feb 20, 2:50 PM)100% (Feb 17, 4:20 PM)30.69 "Hg (Feb 17, 4:20 PM)
Low27 °F (Feb 19, 3:20 AM)49% (Mar 2, 2:50 PM)29.39 "Hg (Feb 21, 6:20 AM)
Average36 °F87%29.94 "Hg
* Reported Feb 17 4:20 PM — Mar 4 4:50 PM, Idar-Oberstein, Weather by CustomWeather, © 2015

Note: Actual official high and low records may vary slightly from our data, if they occured in-between our weather recording intervals... More about our weather records

Advertising

Idar-Oberstein weather history for previous 24 hours

 ConditionsComfort  
Time TempWeatherWind HumidityBarometerVisibility
4:50 PM
Wed, Mar 4
37 °FSnow flurries. Broken clouds.10 mph70%30.27 "HgN/A
4:20 PM39 °FScattered showers. Partly sunny.12 mph70%30.27 "HgN/A
3:50 PM39 °FScattered showers. Broken clouds.14 mph70%30.27 "HgN/A
3:20 PM39 °FBroken clouds.14 mph65%30.27 "HgN/A
2:50 PM37 °FBroken clouds.14 mph75%30.27 "HgN/A
2:20 PM37 °FPartly sunny.13 mph75%30.27 "HgN/A
1:50 PM37 °FPartly sunny.15 mph75%30.27 "HgN/A
1:20 PM37 °FPartly sunny.15 mph75%30.27 "HgN/A
12:50 PM36 °FPartly sunny.15 mph81%30.27 "HgN/A
12:20 PM36 °FPartly sunny.15 mph81%30.24 "HgN/A
11:50 AM36 °FPartly sunny.14 mph81%30.24 "HgN/A
11:20 AM34 °FPartly sunny.17 mph87%30.24 "HgN/A
10:50 AM34 °FPartly sunny.16 mph87%30.24 "HgN/A
9:50 AM34 °FScattered clouds.15 mph87%30.24 "HgN/A
9:20 AM32 °FBroken clouds.10 mph93%30.24 "HgN/A
8:50 AM32 °FBroken clouds.10 mph93%30.21 "HgN/A
8:20 AM32 °FBroken clouds.9 mph93%30.21 "HgN/A
7:50 AM32 °FScattered clouds.10 mph93%30.18 "HgN/A
7:20 AM32 °FScattered clouds.9 mph93%30.18 "HgN/A
6:50 AM32 °FPassing clouds.9 mph93%30.18 "HgN/A
6:20 AM32 °FPassing clouds.13 mph93%30.18 "HgN/A
5:50 AM32 °FPassing clouds.10 mph93%30.15 "HgN/A
5:20 AM32 °FPassing clouds.8 mph93%30.15 "HgN/A
4:50 AM34 °FPassing clouds.10 mph87%30.15 "HgN/A
4:20 AM34 °FPassing clouds.13 mph93%30.15 "HgN/A
3:50 AM34 °FPassing clouds.13 mph93%30.12 "HgN/A
3:20 AM34 °FPassing clouds.14 mph93%30.12 "HgN/A
2:50 AM34 °FPassing clouds.15 mph93%30.12 "HgN/A
2:20 AM34 °FPassing clouds.14 mph93%30.12 "HgN/A
1:50 AM34 °FPartly cloudy.15 mph93%30.12 "HgN/A
1:20 AM34 °FPassing clouds.14 mph100%30.09 "HgN/A
12:50 AM36 °FPassing clouds.16 mph93%30.09 "HgN/A
12:20 AM36 °FPassing clouds.17 mph93%30.09 "HgN/A
11:50 PM
Tue, Mar 3
36 °FPassing clouds.15 mph93%30.09 "HgN/A
11:20 PM36 °FPartly cloudy.20 mph93%30.07 "HgN/A
10:20 PM36 °FPartly cloudy.16 mph93%30.07 "HgN/A
9:50 PM34 °FPartly cloudy.12 mph100%30.07 "HgN/A
9:20 PM34 °FLight snow. Partly cloudy.12 mph93%30.07 "HgN/A
8:20 PM34 °FLight snow. Passing clouds.10 mph100%30.04 "HgN/A
7:50 PM34 °FSnow showers. Passing clouds.15 mph100%30.04 "Hg1 mi
7:20 PM36 °FSnow showers. Partly cloudy.18 mph93%30.04 "Hg4 mi
7:03 PM41 °FSnow showers. Passing clouds.17 mph76%30.01 "Hg2 mi
6:50 PM43 °FPassing clouds.16 mph66%30.01 "HgN/A
6:20 PM43 °FLight rain. Passing clouds.15 mph61%29.98 "HgN/A
Weather by CustomWeather, © 2015

See weather overviewHow to use our weather pages